This is the latest recevied weather packets stored in our database for station/object N0MPM-4. If no packets are shown the sender has not sent any weather packets the latest 10 day(s).
| Time | Temp. | Humidity | Pressure | Rain* | Wind** | Luminosity | Snow |
|---|---|---|---|---|---|---|---|
| 1777889989 | 11.11° C | 65% | 1002.9 hPa | 0 mm | - | - | - |
| 1777889689 | 11.11° C | 65% | 1003 hPa | 0 mm | - | - | - |
| 1777889389 | 11.11° C | 65% | 1003.1 hPa | 0 mm | - | - | - |
| 1777889090 | 11.11° C | 65% | 1003.2 hPa | 0 mm | - | - | - |
| 1777888790 | 11.11° C | 64% | 1003.3 hPa | 0 mm | - | - | - |
| 1777888490 | 11.11° C | 64% | 1003.3 hPa | 0 mm | - | - | - |
| 1777888190 | 11.11° C | 64% | 1003.3 hPa | 0 mm | - | - | - |
| 1777887590 | 11.11° C | 64% | 1003.5 hPa | 0 mm | - | - | - |
| 1777887290 | 11.11° C | 64% | 1003.6 hPa | 0 mm | - | - | - |
| 1777886990 | 11.11° C | 64% | 1003.6 hPa | 0 mm | - | - | - |
| 1777886690 | 11.11° C | 64% | 1003.7 hPa | 0 mm | - | - | - |
| 1777886390 | 11.11° C | 65% | 1003.8 hPa | 0 mm | - | - | - |
| 1777886090 | 10.56° C | 65% | 1003.7 hPa | 0 mm | - | - | - |
| 1777885790 | 10.56° C | 66% | 1003.8 hPa | 0 mm | - | - | - |
| 1777885490 | 10.56° C | 66% | 1003.7 hPa | 0 mm | - | - | - |
| 1777885190 | 10.56° C | 66% | 1003.8 hPa | 0 mm | - | - | - |
| 1777884890 | 10° C | 67% | 1003.9 hPa | 0 mm | - | - | - |
| 1777884590 | 10° C | 69% | 1004 hPa | 0 mm | - | - | - |
| 1777884290 | 10° C | 71% | 1004 hPa | 0 mm | - | - | - |
| 1777883990 | 9.44° C | 69% | 1004 hPa | 0 mm | - | - | - |
| 1777883690 | 10° C | 69% | 1004.1 hPa | 0 mm | - | - | - |
| 1777883390 | 10° C | 68% | 1004.1 hPa | 0 mm | - | - | - |
| 1777883090 | 10.56° C | 68% | 1004.1 hPa | 0 mm | - | - | - |
| 1777882490 | 10.56° C | 65% | 1004.2 hPa | 0 mm | - | - | - |
| 1777882190 | 11.11° C | 65% | 1004.4 hPa | 0 mm | - | - | - |
* Rain latest hour (hover to see other rain measurements)
** Current wind speed in m/s (hover to see current wind gust speed)